Regional Weather Roundup
Issued by NWS

Home | Current Version | Previous Version | Text Only | Print | Product List | Glossary On
Versions: 1 2 3 4 5 6 7 8 9 10 11 12 13 14 15 16 17 18 19 20 21 22 23 24 25 26 27 28 29 30 31 32 33 34 35 36 37 38 39 40 41 42 43 44 45 46 47 48 49 50
000
ASUS44 KMEG 281710
RWRTN
TENNESSEE HOURLY STATE WEATHER ROUNDUP
NATIONAL WEATHER SERVICE MEMPHIS TN
1200 PM CDT MON JUL 28 2014

TNZ002-004-019-021-049-052-054-088>092-281800-
WEST TENNESSEE

CITY           SKY/WX    TMP DP  RH WIND       PRES   REMARKS
MEMPHIS INTL   MOSUNNY   83  63  50 NW14      30.09S
NWS MEMPHIS      N/A     82 N/A N/A MISG        N/A
JACKSON        MOSUNNY   79  61  53 NW9       30.07S
DYERSBURG      MOSUNNY   79  57  47 NW12      30.08F
UNION CITY     MOSUNNY   77  63  61 NW9       30.06S
PARIS          MOSUNNY   76  62  61 N8        30.06F
LEXINGTON      MOSUNNY   79  63  57 NW8       30.05S
SAVANNAH       SUNNY     80  63  56 NW12      30.05F
$$

TNZ008-025-027-028-033-062-065-066-281800-
NORTH MIDDLE TENNESSEE

CITY           SKY/WX    TMP DP  RH WIND       PRES   REMARKS
NASHVILLE      MOSUNNY   79  60  52 W12       30.02F
DICKSON        MOSUNNY   75  61  60 N14       30.05S
CLARKSVILLE    PTSUNNY   81  59  47 NW15      30.03F
LEBANON        MOSUNNY   78  60  53 W12       30.01S
SMYRNA         PTSUNNY   85  63  47 NW12      30.03S
MURFREESBORO   MOSUNNY   79  59  50 N10       30.01F
COOKEVILLE     MOSUNNY   79  64  61 NW8       30.02S
LIVINGSTON       N/A     74  59  59 NW8       30.02F
CROSSVILLE     LGT RAIN  78  59  51 NW14G20   30.04F
$$

TNZ061-075-076-078-094-096-097-281800-
SOUTH MIDDLE TENNESSEE

CITY           SKY/WX    TMP DP  RH WIND       PRES   REMARKS
LEWISBURG      SUNNY     80  61  52 NW9       30.03S
FAYETTEVILLE   SUNNY     79  61  53 N9        30.03F
TULLAHOMA      MOSUNNY   79  61  53 VRB7      30.04S
WINCHESTER     SUNNY     79  61  53 N10       30.03S
MCMINNVILLE    MOSUNNY   77  64  65 W10       30.03S
COLUMBIA       MOSUNNY   81  63  54 NW10      30.03S
SHELBYVILLE    SUNNY     81  63  54 NW9       30.03S
$$

TNZ017-018-042-046-047-281800-
NORTHEAST TENNESSEE

CITY           SKY/WX    TMP DP  RH WIND       PRES   REMARKS
TRI CITIES     MOSUNNY   76  58  53 W14       29.96S
ELIZABETHTON   MOSUNNY   73  59  60 SW9         N/A
$$

TNZ012-013-036-069-073-074-281800-
CENTRAL EAST TENNESSEE

CITY           SKY/WX    TMP DP  RH WIND       PRES   REMARKS
KNOXVILLE      MOSUNNY   79  61  53 W14       29.97F
OAK RIDGE      MOSUNNY   81  59  47 VRB7      29.99S
GATLINBURG     MOSUNNY   79  61  53 W7        29.97S
MORRISTOWN     MOSUNNY   75  61  60 W9        29.99S
$$

TNZ083-085-099-281800-
SOUTHEAST TENNESSEE

CITY           SKY/WX    TMP DP  RH WIND       PRES   REMARKS
CHATTANOOGA    MOSUNNY   83  60  45 NW12      29.98F
$$

SKY/WX REPORTED AS FAIR MEANS FEW OR NO CLOUDS BELOW
12 THOUSAND FEET.




USA.gov is the U.S. government's official web portal to all federal, state and local government web resources and services.